Weather History for St. Joseph, MO

Change the Weather History Date:

Wednesday, November 7, 2012

  Actual Average Record
Temperature  
Mean Temperature 44 °F 46 °F  
Max Temperature 55 °F 57 °F 78 °F (1966)
Min Temperature 33 °F 35 °F 0 °F (1991)
Degree Days  
Heating Degree Days 21 19  
Month to date heating degree days 123 124  
Since 1 July heating degree days 624 543  
Cooling Degree Days 0 0  
Month to date cooling degree days 0 0  
Year to date cooling degree days 1560 1220  
Moisture  
Dew Point 30 °F    
Average Humidity 60    
Maximum Humidity 82    
Minimum Humidity 38    
Precipitation  
Precipitation 0.00 in 0.05 in 1.69 in (2011)
Month to date precipitation 0.19 0.54  
Year to date precipitation 20.71 33.07  
Sea Level Pressure  
Sea Level Pressure 30.13 in    
Wind  
Wind Speed 4 mph (NW)    
Max Wind Speed 13 mph    
Max Gust Speed 16 mph    
Visibility 10 miles    
Events      
T = Trace of Precipitation, MM = Missing Value Source: NWS Daily Summary

Daily Weather History Graph

Daily Weather History Graph

Search for Another Location

Airport:

Trip Planner

Search our weather history database for the weather conditions in past years. The results will help you decide how hot, cold, wet, or windy it might be!

Date:

Astronomy

Nov. 07, 2012 Rise Set
Actual Time 6:55 AM CST 5:10 PM CST
Civil Twilight 6:27 AM CST 5:38 PM CST
Nautical Twilight 5:55 AM CST 6:11 PM CST
Astronomical Twilight 5:23 AM CST 6:42 PM CST
Moon No Moon Rise 1:19 PM CST (11/7)
Length of Visible Light 11h 11m
Length of Day
10h 14m
Last Quarter, 43% of the Moon is Illuminated
Nov 7
Last Quarter
Nov 13
New
Nov 20
First Quarter
Nov 28
Full
Dec 6
Last Quarter

Hourly Weather History & Observations

Time (CST) Temp. Windchill Dew Point Humidity Pressure Visibility Wind Dir Wind Speed Gust Speed Precip Events Conditions
12:53 AM 39.9 °F - 30.0 °F 68% 30.08 in 10.0 mi Calm Calm - N/A   Clear
1:53 AM 39.0 °F - 28.9 °F 67% 30.08 in 10.0 mi Calm Calm - N/A   Clear
2:53 AM 37.9 °F 34.4 °F 28.0 °F 68% 30.09 in 10.0 mi West 4.6 mph - N/A   Clear
3:53 AM 35.1 °F 30.1 °F 28.0 °F 76% 30.09 in 10.0 mi West 5.8 mph - N/A   Clear
4:53 AM 37.0 °F 33.3 °F 28.0 °F 70% 30.12 in 10.0 mi West 4.6 mph - N/A   Clear
5:53 AM 35.1 °F 29.3 °F 28.0 °F 76% 30.15 in 10.0 mi WNW 6.9 mph - N/A   Clear
6:53 AM 34.0 °F 27.2 °F 28.0 °F 79% 30.17 in 10.0 mi NW 8.1 mph - N/A   Clear
7:53 AM 37.0 °F 32.4 °F 30.0 °F 76% 30.19 in 10.0 mi NNW 5.8 mph - N/A   Clear
8:53 AM 41.0 °F 39.0 °F 33.1 °F 73% 30.20 in 10.0 mi NNW 3.5 mph - N/A   Unknown
9:53 AM 46.0 °F 41.9 °F 33.1 °F 61% 30.21 in 10.0 mi North 8.1 mph - N/A   Clear
10:53 AM 48.9 °F - 32.0 °F 52% 30.21 in 10.0 mi North 10.4 mph - N/A   Clear
11:53 AM 51.1 °F - 30.9 °F 46% 30.18 in 10.0 mi North 8.1 mph - N/A   Clear
12:53 PM 53.1 °F - 30.9 °F 43% 30.15 in 10.0 mi North 8.1 mph - N/A   Clear
1:53 PM 54.0 °F - 30.9 °F 41% 30.12 in 10.0 mi Calm Calm - N/A   Clear
2:53 PM 53.1 °F - 28.9 °F 40% 30.11 in 10.0 mi WNW 3.5 mph - N/A   Clear
3:53 PM 54.0 °F - 28.9 °F 38% 30.11 in 10.0 mi Calm Calm - N/A   Clear
4:53 PM 52.0 °F - 30.0 °F 43% 30.10 in 10.0 mi Calm Calm - N/A   Clear
5:53 PM 46.0 °F 44.8 °F 30.9 °F 56% 30.11 in 10.0 mi SE 3.5 mph - N/A   Clear
6:53 PM 42.1 °F - 32.0 °F 67% 30.12 in 10.0 mi Calm Calm - N/A   Clear
7:53 PM 37.0 °F - 28.9 °F 73% 30.12 in 10.0 mi Calm Calm - N/A   Clear
8:53 PM 36.0 °F - 28.9 °F 76% 30.12 in 10.0 mi Calm Calm - N/A   Clear
9:53 PM 34.0 °F - 28.9 °F 82% 30.13 in 10.0 mi Calm Calm - N/A   Clear
10:53 PM 36.0 °F 29.6 °F 30.0 °F 79% 30.13 in 10.0 mi South 8.1 mph - N/A   Clear
11:53 PM 39.9 °F 37.8 °F 32.0 °F 73% 30.12 in 10.0 mi SSW 3.5 mph - N/A   Clear